Regional Weather Roundup
Issued by NWS Charleston, SC

Current Version | Previous Version | Graphics & Text | Print | Product List | Glossary On
Versions: 1 2 3 4 5 6 7 8 9 10 11 12 13 14 15 16 17 18 19 20 21 22 23 24 25 26 27 28 29 30 31 32 33 34 35 36 37 38 39 40 41 42 43 44 45 46 47 48 49 50
000
ASUS42 KCHS 211710
RWRCHS

REGIONAL WEATHER ROUNDUP
NATIONAL WEATHER SERVICE CHARLESTON SC
100 PM EDT SUN SEP 21 2014

NOTE: "FAIR" INDICATES FEW OR NO CLOUDS BELOW 12,000 FEET WITH NO
SIGNIFICANT WEATHER AND/OR OBSTRUCTIONS TO VISIBILITY.

NOT ALL STATIONS ARE QUALITY CONTROLLED BY THE NATIONAL
WEATHER SERVICE. USE DATA WITH CAUTION...ESPECIALLY
DEWPOINT OBSERVATIONS.

SCZ027-030-031-034>040-042>050-211800-
...SOUTH CAROLINA...

CITY           SKY/WX    TMP DP  RH WIND       PRES   REMARKS
N CHARLESTON   MOSUNNY   84  61  45 NW10      29.95F
WATERFRONT PRK NOT AVBL
FORT JOHNSON   NOT AVBL
MOUNT PLEASANT FAIR      82  63  51 N9        29.94F
JOHNS ISLAND     N/A     84  72  65 NW8       29.96F
PINOPOLIS        N/A     81  63  54 NW7       29.89F
MONCKS CORNER    N/A     82  66  57 CALM      29.95F
SUMMERVILLE    FAIR      82  64  54 W8        29.96F
BEAUFORT MCAS  SUNNY     84  64  50 S8        29.97F
BEAUFORT ARPT  FAIR      82  64  54 NW7       29.97F
HILTON HEAD IS SUNNY     82  64  54 NW9G16    29.99F
GEORGETOWN     NOT AVBL
WALTERBORO     SUNNY     84  57  39 W6        29.97F
ORANGEBURG     SUNNY     84  61  45 NW13      29.97F
BARNWELL       FAIR      84  64  51 W7        29.99F
AIKEN          FAIR      84  66  54 SW12G18   30.01F
MANNING        FAIR      84  63  48 NW8       29.95F
KINGSTREE      NOT AVBL
COLUMBIA       SUNNY     86  61  42 W12       29.95F
SUMTER         SUNNY     83  64  52 W10       29.93F
FLORENCE       SUNNY     83  61  47 NW12      29.92F
MYRTLE BEACH   MOSUNNY   81  61  50 NW12      29.91F
N MYRTLE BEACH MOSUNNY   81  62  52 NW12      29.90F

$$

GAZ063-065-086>088-099>101-113>116-118-119-134-136>141-150-211800-
...GEORGIA...

CITY           SKY/WX    TMP DP  RH WIND       PRES   REMARKS
SAVANNAH ARPT  MOSUNNY   85  61  44 W10G17    29.99F
HUNTER AAF     SUNNY     84  65  52 NW13      29.97F
FORT STEWART   SUNNY     85  60  44 NW10      29.99F
STATESBORO     NOT AVBL
SYLVANIA       SUNNY     85  67  54 NW10      30.00F
CLAXTON        FAIR      86  64  48 W7        30.00F
THOMSON        SUNNY     85  70  61 W7        30.04F
AUGUSTA-BUSH   SUNNY     85  61  44 NW14G21   29.97F
AUGUSTA-DANIEL SUNNY     85  62  46 NW12      29.99F
SWAINSBORO     FAIR      86  64  48 NW8       30.02F
VIDALIA        SUNNY     82  61  47 NW6       30.02F
ALMA           SUNNY     85  59  41 VRB3      30.02F
WAYCROSS       NOT AVBL
JESUP          FAIR      88  63  42 NW7       30.01F
BRUNSWICK      SUNNY     84  63  48 N7        30.01F
SAINT SIMONS   SUNNY     84  61  45 NW10      30.00F

$$

SCZ027-028-034-036>038-045-046-048>050-GAZ119-141-211800-
...LAKE AND SUPPLEMENTAL COASTAL OBSERVATIONS...

STATION/POSITION TIME  TEMP    WIND        PRES    WAVE   SWELL
                       AIR SEA DIR/SP/G            HT/PER HT/PER/DIR
                 (UTC) (F)     (DEG/KT/KT) (MB)    (FT/S) (FT/S/D)
UPR LAKE MARION  NOT AVBL
WINYAH BAY       1600   77     310/  8     1014.0S
LAKE MURRAY      1600   78     250/  9/ 12 1013.9F
ACE BASIN NERRS  1600   80     310/  3     1016.0S
FORT PULASKI     1700   80     280/ 11/ 13 1015.5F
SAPELO ISLAND    NOT AVBL

$$

ANZ835-935-AMZ111-154-330-350-352-354-374-450-454-472-211800-
...C-MAN AND BUOY OBSERVATIONS...

STATION/POSITION TIME  TEMP    WIND        PRES    WAVE   SWELL
                       AIR SEA DIR/SP/G            HT/PER HT/PER/DIR
                 (UTC) (F)     (DEG/KT/KT) (MB)    (FT/S) (FT/S/D)
FOLLY BEACH CMAN 1600   80     320/  4/  7 1015.3F
BUOY 41004       1700   77 81  320/ 14/ 17 1013.6F   5/ 7   3/ 7
BUOY 41008       1700   77 83  320/  8/ 10 1016.0F   3/ 7   3/ 80/ 7
5E ST. MARYS GA  1700      83                N/A     3/ 9
FRYING PAN BUOY  NOT AVBL
BUOY 41025       1600   76     320/ 25/ 29 1005.7R   9/ 9   7/110/ 9
CAPE LOOKOUT NC  1600   74     330/ 16/ 18 1009.3R
BUOY 41002       1559   80 81  270/ 21/ 27 1011.6R  11/ 8
BUOY 41010       1700   78 84  180/  8/ 10 1016.0R   4/10   3/ 20/10
BUOY 41012       NOT AVBL
ST AUGUSTINE FL  1700   77     360/  7/  8 1017.2F
CAPERS NEARSHORE 1600   79     340/ 10/ 12   N/A
FRIPP NEARSHORE  NOT AVBL


$$



USA.gov is the U.S. government's official web portal to all federal, state and local government web resources and services.